TimePST,TemperatureF,Dew PointF,Humidity,Sea Level PressureIn,VisibilityMPH,Wind Direction,Wind SpeedMPH,Gust SpeedMPH,PrecipitationIn,Events,Conditions,WindDirDegrees,DateUTC
12:55 AM,28.9,27.0,92,30.35,5.0,Calm,Calm,-,N/A,,Clear,0,2013-03-02 08:55:00
1:55 AM,28.9,27.0,92,30.33,10.0,Calm,Calm,-,N/A,,Clear,0,2013-03-02 09:55:00
2:55 AM,28.9,27.0,92,30.30,10.0,Calm,Calm,-,N/A,,Clear,0,2013-03-02 10:55:00
3:55 AM,26.1,25.0,96,30.29,10.0,Calm,Calm,-,N/A,,Clear,0,2013-03-02 11:55:00
4:55 AM,27.0,26.1,96,30.28,10.0,Calm,Calm,-,N/A,,Clear,0,2013-03-02 12:55:00
5:55 AM,28.0,26.1,92,30.29,10.0,North,-9999.0,-,N/A,,Clear,0,2013-03-02 13:55:00
6:55 AM,28.0,26.1,92,30.31,10.0,Calm,Calm,-,N/A,,Clear,0,2013-03-02 14:55:00
7:55 AM,32.0,30.0,92,30.31,10.0,Calm,Calm,-,N/A,,Clear,0,2013-03-02 15:55:00
8:55 AM,37.9,34.0,86,30.29,10.0,Calm,Calm,-,N/A,,Clear,0,2013-03-02 16:55:00
9:55 AM,45.0,36.0,71,30.28,10.0,Calm,Calm,-,N/A,,Clear,0,2013-03-02 17:55:00
10:55 AM,50.0,37.0,61,30.25,10.0,West,4.6,-,N/A,,Clear,280,2013-03-02 18:55:00
11:55 AM,55.9,33.1,42,30.22,10.0,West,8.1,-,N/A,,Clear,270,2013-03-02 19:55:00
12:55 PM,55.0,35.1,47,30.20,10.0,West,5.8,-,N/A,,Clear,270,2013-03-02 20:55:00
1:55 PM,55.9,35.1,45,30.17,10.0,Variable,5.8,-,N/A,,Clear,0,2013-03-02 21:55:00
2:55 PM,55.9,33.1,42,30.15,10.0,West,10.4,-,N/A,,Clear,270,2013-03-02 22:55:00
3:55 PM,55.0,34.0,45,30.15,10.0,West,11.5,-,N/A,,Mostly Cloudy,270,2013-03-02 23:55:00
4:55 PM,54.0,34.0,47,30.13,10.0,West,10.4,-,N/A,,Clear,260,2013-03-03 00:55:00
5:55 PM,50.0,33.1,52,30.13,10.0,West,6.9,-,N/A,,Clear,280,2013-03-03 01:55:00
6:55 PM,48.0,33.1,56,30.14,10.0,Calm,Calm,-,N/A,,Mostly Cloudy,0,2013-03-03 02:55:00
7:55 PM,46.0,34.0,63,30.13,10.0,Calm,Calm,-,N/A,,Mostly Cloudy,0,2013-03-03 03:55:00
8:55 PM,44.1,34.0,68,30.12,10.0,West,5.8,-,N/A,,Overcast,260,2013-03-03 04:55:00
9:55 PM,43.0,33.1,68,30.10,10.0,Calm,Calm,-,N/A,,Overcast,0,2013-03-03 05:55:00
10:55 PM,42.1,32.0,67,30.09,10.0,SW,5.8,-,N/A,,Overcast,230,2013-03-03 06:55:00
11:55 PM,41.0,32.0,70,30.07,10.0,WSW,5.8,-,N/A,,Overcast,250,2013-03-03 07:55:00